Sparta, IL

3:16 PM CDT on May 28, 2017 (GMT -0500)
Sparta Community-Hunter

Weather History for KSAR - July, 2013

Change the Weather History Date:

Tuesday, July 2, 2013

  Actual Average (KBLV) Record (KBLV)
Temperature  
Mean Temperature 63 °F -  
Max Temperature 64 °F 89 °F 101 °F (2012)
Min Temperature 62 °F 66 °F 55 °F (1971)
Degree Days  
Heating Degree Days 2    
Growing Degree Days 13 (Base 50)    
Moisture  
Dew Point 62 °F    
Average Humidity 94    
Maximum Humidity 100    
Minimum Humidity 94    
Precipitation  
Precipitation 1.62 in - - ()
Sea Level Pressure  
Sea Level Pressure 29.98 in    
Wind  
Wind Speed 8 mph (NNW)    
Max Wind Speed 14 mph    
Max Gust Speed 18 mph    
Visibility 8 miles    
Events Rain    
Averages and records for this station are not official NWS values.
T = Trace of Precipitation, MM = Missing Value Source: NWS Daily Summary

Daily Weather History Graph

Daily Weather History Graph

Search for Another Location

Airport or City:

Trip Planner

Search our weather history database for the weather conditions in past years. The results will help you decide how hot, cold, wet, or windy it might be!

Date:

Astronomy

Jul. 02, 2013 Rise Set
Actual Time 5:40 AM CDT 8:25 PM CDT
Civil Twilight 5:08 AM CDT 8:56 PM CDT
Nautical Twilight 4:29 AM CDT 9:36 PM CDT
Astronomical Twilight 3:44 AM CDT 10:20 PM CDT
Moon 1:40 AM CDT (7/2) 3:41 PM CDT (7/2)
Length of Visible Light 15h 48m
Length of Day
14h 45m
Waning Crescent, 26% of the Moon is Illuminated
Jul 2
Waning Crescent
Jul 8
New
Jul 15
First Quarter
Jul 22
Full
Jul 29
Last Quarter

Hourly Weather History & Observations

Time (CDT) Temp. Dew Point Humidity Pressure Visibility Wind Dir Wind Speed Gust Speed Precip Events Conditions
12:15 AM 64.4 °F 62.6 °F 94% 29.95 in 10.0 mi NNW 9.2 mph - 0.01 in Rain Rain
12:35 AM 64.4 °F 62.6 °F 94% 29.95 in 10.0 mi NNW 8.1 mph - 0.01 in Rain Rain
12:55 AM 64.4 °F 62.6 °F 94% 29.94 in 10.0 mi North 6.9 mph - 0.01 in Rain Light Rain
1:15 AM 64.4 °F 62.6 °F 94% 29.94 in 10.0 mi North 6.9 mph - 0.01 in   Light Drizzle
1:35 AM 64.4 °F 62.6 °F 94% 29.93 in 10.0 mi North 8.1 mph - 0.01 in   Mostly Cloudy
1:55 AM 64.4 °F 62.6 °F 94% 29.93 in 10.0 mi North 8.1 mph - 0.01 in Rain Light Rain
2:15 AM 64.4 °F 62.6 °F 94% 29.93 in 10.0 mi North 6.9 mph - 0.02 in Rain Light Rain
2:35 AM 64.4 °F 62.6 °F 94% 29.92 in 7.0 mi North 6.9 mph - 0.05 in Rain Rain
2:55 AM 64.4 °F 62.6 °F 94% 29.92 in 10.0 mi North 8.1 mph - 0.10 in Rain Rain
3:15 AM 64.4 °F 62.6 °F 94% 29.92 in 7.0 mi North 5.8 mph - 0.02 in Rain Light Rain
3:35 AM 64.4 °F 62.6 °F 94% 29.92 in 7.0 mi North 8.1 mph - 0.02 in Rain Rain
3:55 AM 64.4 °F 62.6 °F 94% 29.92 in 7.0 mi North 8.1 mph - 0.02 in   Light Drizzle
4:15 AM 64.4 °F 62.6 °F 94% 29.93 in 10.0 mi North 8.1 mph - 0.02 in Rain Light Rain
4:35 AM 64.4 °F 62.6 °F 94% 29.92 in 10.0 mi North 8.1 mph - 0.05 in Rain Light Rain
4:55 AM 64.4 °F 62.6 °F 94% 29.93 in 10.0 mi NNW 8.1 mph - 0.05 in Rain Rain
5:15 AM 64.4 °F 62.6 °F 94% 29.93 in 10.0 mi North 8.1 mph - N/A   Light Drizzle
5:35 AM 64.4 °F 62.6 °F 94% 29.94 in 7.0 mi North 6.9 mph - 0.01 in Rain Rain
5:55 AM 64.4 °F 62.6 °F 94% 29.94 in 10.0 mi NNW 9.2 mph - 0.06 in Rain Rain
6:15 AM 62.6 °F 62.6 °F 100% 29.94 in 10.0 mi NNW 8.1 mph - 0.04 in Rain Rain
6:35 AM 62.6 °F 60.8 °F 94% 29.94 in 10.0 mi NNW 8.1 mph - 0.08 in Rain Rain
6:55 AM 62.6 °F 60.8 °F 94% 29.95 in 10.0 mi NNW 9.2 mph - 0.15 in Rain Rain
7:15 AM 62.6 °F 60.8 °F 94% 29.95 in 10.0 mi NNW 9.2 mph - 0.05 in Rain Rain
7:35 AM 62.6 °F 60.8 °F 94% 29.96 in 10.0 mi North 9.2 mph - 0.08 in Rain Light Rain
7:55 AM 62.6 °F 60.8 °F 94% 29.96 in 7.0 mi North 9.2 mph 16.1 mph 0.10 in Rain Rain
8:15 AM 62.6 °F 60.8 °F 94% 29.96 in 10.0 mi North 8.1 mph - 0.03 in Rain Light Rain
8:35 AM 62.6 °F 60.8 °F 94% 29.96 in 7.0 mi North 10.4 mph - 0.05 in Rain Rain
9:15 AM 62.6 °F 60.8 °F 94% 29.97 in 10.0 mi NNW 11.5 mph 16.1 mph 0.08 in Rain Heavy Rain
9:35 AM 62.6 °F 60.8 °F 94% 29.97 in 10.0 mi NNW 9.2 mph - 0.19 in Rain Rain
9:55 AM 62.6 °F 60.8 °F 94% 29.97 in 10.0 mi NNW 10.4 mph 16.1 mph 0.21 in Rain Light Rain
10:15 AM 62.6 °F 60.8 °F 94% 29.98 in 10.0 mi NNW 11.5 mph 17.3 mph 0.08 in Rain Rain
10:35 AM 62.6 °F 60.8 °F 94% 29.98 in 10.0 mi NNW 8.1 mph - 0.14 in Rain Rain
10:55 AM 62.6 °F 60.8 °F 94% 29.99 in 7.0 mi NNW 8.1 mph 17.3 mph 0.31 in Rain Heavy Rain
11:15 AM 62.6 °F 60.8 °F 94% 29.99 in 10.0 mi NNW 9.2 mph 17.3 mph 0.11 in Rain Light Rain
11:35 AM 62.6 °F 60.8 °F 94% 29.99 in 5.0 mi NNW 9.2 mph - 0.11 in   Drizzle
11:55 AM 62.6 °F 60.8 °F 94% 29.99 in 5.0 mi NNW 11.5 mph 18.4 mph 0.12 in Rain Rain
12:15 PM 62.6 °F 60.8 °F 94% 29.99 in 7.0 mi NW 8.1 mph - 0.03 in Rain Light Rain
12:35 PM 62.6 °F 60.8 °F 94% 29.99 in 10.0 mi NNW 8.1 mph - 0.07 in Rain Light Rain
12:55 PM 62.6 °F 60.8 °F 94% 29.99 in 10.0 mi NNW 9.2 mph - 0.08 in   Drizzle
1:15 PM 62.6 °F 60.8 °F 94% 29.99 in 10.0 mi NNW 10.4 mph - 0.01 in Rain Light Rain
1:35 PM 62.6 °F 60.8 °F 94% 29.99 in 10.0 mi NNW 13.8 mph - 0.01 in Rain Rain
1:55 PM 62.6 °F 60.8 °F 94% 30.00 in 10.0 mi NNW 10.4 mph - 0.02 in   Light Drizzle
2:15 PM 62.6 °F 60.8 °F 94% 30.00 in 10.0 mi NNW 9.2 mph - N/A   Drizzle
2:35 PM 62.6 °F 60.8 °F 94% 30.00 in 5.0 mi NNW 9.2 mph - N/A   Drizzle
2:55 PM 62.6 °F 62.6 °F 100% 30.00 in 3.0 mi NNW 9.2 mph - N/A Rain Rain
3:15 PM 62.6 °F 62.6 °F 100% 30.00 in 10.0 mi NNW 9.2 mph - 0.01 in   Drizzle
3:35 PM 64.4 °F 62.6 °F 94% 30.00 in 3.0 mi NNW 8.1 mph - 0.01 in   Drizzle
3:55 PM 64.4 °F 62.6 °F 94% 30.00 in 5.0 mi NW 8.1 mph - 0.02 in   Drizzle
4:15 PM 64.4 °F 62.6 °F 94% 30.00 in 7.0 mi NW 8.1 mph - N/A   Overcast
4:35 PM 64.4 °F 62.6 °F 94% 30.00 in 7.0 mi NW 6.9 mph - N/A   Overcast
4:55 PM 64.4 °F 62.6 °F 94% 30.01 in 4.0 mi NW 6.9 mph - N/A Rain Heavy Rain
5:15 PM 64.4 °F 62.6 °F 94% 30.01 in 5.0 mi NNW 8.1 mph - 0.07 in Rain Rain
5:35 PM 64.4 °F 62.6 °F 94% 30.01 in 4.0 mi NNW 6.9 mph - 0.11 in   Heavy Drizzle
5:55 PM 64.4 °F 62.6 °F 94% 30.01 in 5.0 mi NW 6.9 mph - 0.14 in Rain Light Rain
6:15 PM 64.4 °F 62.6 °F 94% 30.01 in 7.0 mi NNW 6.9 mph - 0.01 in   Light Drizzle
6:35 PM 64.4 °F 62.6 °F 94% 30.01 in 5.0 mi NNW 8.1 mph - 0.01 in   Overcast
6:55 PM 64.4 °F 62.6 °F 94% 30.02 in 4.0 mi NNW 9.2 mph - 0.01 in   Drizzle
7:15 PM 64.4 °F 62.6 °F 94% 30.02 in 3.0 mi NNW 8.1 mph - 0.04 in Rain Heavy Rain
7:35 PM 64.4 °F 62.6 °F 94% 30.02 in 4.0 mi NW 5.8 mph - 0.06 in   Heavy Drizzle
7:55 PM 64.4 °F 62.6 °F 94% 30.02 in 5.0 mi NW 6.9 mph - 0.07 in   Drizzle
8:15 PM 64.4 °F 62.6 °F 94% 30.02 in 5.0 mi NW 5.8 mph - N/A   Light Drizzle
8:35 PM 64.4 °F 62.6 °F 94% 30.02 in 10.0 mi NW 8.1 mph - N/A   Light Drizzle
8:55 PM 64.4 °F 62.6 °F 94% 30.03 in 7.0 mi NW 5.8 mph - N/A   Drizzle
9:15 PM 64.4 °F 62.6 °F 94% 30.03 in 5.0 mi WNW 5.8 mph - 0.04 in Rain Rain
9:35 PM 64.4 °F 62.6 °F 94% 30.03 in 7.0 mi West 5.8 mph - 0.07 in Rain Light Rain
9:55 PM 64.4 °F 62.6 °F 94% 30.04 in 7.0 mi WNW 5.8 mph - 0.08 in   Drizzle
10:15 PM 62.6 °F 60.8 °F 94% 30.04 in 10.0 mi WNW 6.9 mph - 0.01 in   Light Drizzle
10:35 PM 62.6 °F 60.8 °F 94% 30.04 in 10.0 mi WNW 5.8 mph - 0.01 in   Overcast
10:55 PM 62.6 °F 60.8 °F 94% 30.04 in 10.0 mi WNW 5.8 mph - 0.01 in   Overcast
11:15 PM 62.6 °F 60.8 °F 94% 30.05 in 10.0 mi West 4.6 mph - N/A   Overcast
11:35 PM 62.6 °F 60.8 °F 94% 30.04 in 10.0 mi West 3.5 mph - N/A   Overcast
11:55 PM 62.6 °F 60.8 °F 94% 30.04 in 10.0 mi West 4.6 mph - N/A   Overcast